Weather WX

World > North America > United States > Indiana

Winamac, Indiana Regional Weather

Lat: 41.05N, Lon: 86.6W
Wx Zone: INZ013
Warning FLW WEATHER ALERT - (More Info. Click Here) Warning
Feedback

Winamac, IN Regional Weather

Expires:201907160900;;718477
ASUS43 KIND 160809
RWRIN 

WEATHER ROUNDUP FOR INDIANA
NATIONAL WEATHER SERVICE INDIANAPOLIS IN
400 AM EDT TUE JUL 16 2019

NOTE: "FAIR" INDICATES FEW OR NO CLOUDS BELOW 12,000 FEET WITH NO
SIGNIFICANT WEATHER AND/OR OBSTRUCTIONS TO VISIBILITY.

* - STATION DOES NOT REPORT WEATHER SUCH AS PRECIPITATION OR FOG.

+ - STATION NOT QUALITY CONTROLLED BY THE NATIONAL WEATHER SERVICE.
    USE DATA WITH CAUTION...ESPECIALLY DEWPOINT AND RELATIVE
    HUMIDITY OBSERVATIONS.


INZ001>003-010>013-019-020-160900-
NORTHWEST INDIANA
  
CITY           SKY/WX    TMP DP  RH WIND       PRES   REMARKS
GARY /AIRPORT/ RAIN      72  72 100 S3        29.98F                  
KNOX *+        CLOUDY    70  68  94 MISG      30.00F                  
LA PORTE +     LGT RAIN  70  68  93 SW6       30.01F                  
MICHIGAN CITY+ RAIN      72  52  49 S8        30.00F                  
MONTICELLO +   LGT RAIN  74  67  78 SE6       29.99F                  
RENSSELAER +   LGT RAIN  70  68  94 CALM      29.99F                  
VALPARAISO     HVY RAIN  71  68  90 S5        30.00F                  

$$


SKY/WX - Weather  TMP - Temperature  DP - Dew Point  RH - Relative Humidity
WIND - Wind Direction/Speed PRES - Barometric Pressure VSB - Visibility
WCI - Wind Chill Index E13G22 Wind - East Wind 13 mph/Gusts of 22 mph